Weather History for Kill Devil Hills, NC

Change the Weather History Date:

Friday, September 21, 2012

  Actual Average (KMQI) Record (KMQI)
Temperature  
Mean Temperature 68 °F -  
Max Temperature 73 °F 75 °F 90 °F (1977)
Min Temperature 63 °F 66 °F 59 °F (2010)
Cooling Degree Days 3    
Growing Degree Days 18 (Base 50)    
Moisture  
Dew Point 60 °F    
Average Humidity 75    
Maximum Humidity 90    
Minimum Humidity 54    
Precipitation  
Precipitation 0.00 in - - ()
Sea Level Pressure  
Sea Level Pressure 30.04 in    
Wind  
Wind Speed 2 mph (North)    
Max Wind Speed 9 mph    
Max Gust Speed -    
Visibility 10 miles    
Events      
Averages and records for this station are not official NWS values.
T = Trace of Precipitation, MM = Missing Value Source: NWS Daily Summary

Daily Weather History Graph

Daily Weather History Graph

Search for Another Location

Airport:

Trip Planner

Search our weather history database for the weather conditions in past years. The results will help you decide how hot, cold, wet, or windy it might be!

Date:

Astronomy

Sep. 21, 2012 Rise Set
Actual Time 6:50 AM EDT 7:00 PM EDT
Civil Twilight 6:24 AM EDT 7:25 PM EDT
Nautical Twilight 5:54 AM EDT 7:55 PM EDT
Astronomical Twilight 5:24 AM EDT 8:26 PM EDT
Moon 12:57 PM EDT 11:10 PM EDT
Length of Visible Light 13h 01m
Length of Day
12h 10m
Waxing Crescent, 37% of the Moon is Illuminated
Sep 21
Waxing Crescent
Sep 22
First Quarter
Sep 29
Full
Oct 8
Last Quarter
Oct 15
New

Hourly Weather History & Observations

Time (EDT) Temp. Dew Point Humidity Pressure Visibility Wind Dir Wind Speed Gust Speed Precip Events Conditions
12:15 AM 67.6 °F 61.3 °F 80% 30.06 in 10.0 mi North 3.5 mph - N/A   Clear
12:35 AM 67.5 °F 61.5 °F 81% 30.06 in 10.0 mi North 3.5 mph - N/A   Clear
12:55 AM 67.3 °F 61.3 °F 81% 30.06 in 10.0 mi Calm Calm - N/A   Scattered Clouds
1:15 AM 66.9 °F 61.3 °F 82% 30.06 in 10.0 mi Calm Calm - N/A   Clear
1:35 AM 66.4 °F 61.0 °F 83% 30.06 in 10.0 mi Calm Calm - N/A   Clear
1:55 AM 66.0 °F 61.0 °F 84% 30.06 in 10.0 mi Calm Calm - N/A   Scattered Clouds
2:15 AM 65.8 °F 60.8 °F 84% 30.05 in 10.0 mi Calm Calm - N/A   Scattered Clouds
2:35 AM 65.5 °F 60.8 °F 85% 30.05 in 10.0 mi WNW 3.5 mph - N/A   Clear
2:55 AM 65.5 °F 61.3 °F 86% 30.05 in 10.0 mi NW 3.5 mph - N/A   Clear
3:15 AM 65.3 °F 61.7 °F 88% 30.05 in 10.0 mi Calm Calm - N/A   Clear
3:35 AM 65.3 °F 61.7 °F 88% 30.05 in 10.0 mi Calm Calm - N/A   Clear
3:55 AM 65.1 °F 61.7 °F 89% 30.04 in 10.0 mi Calm Calm - N/A   Clear
4:15 AM 64.8 °F 61.3 °F 89% 30.04 in 10.0 mi Calm Calm - N/A   Clear
4:35 AM 64.6 °F 61.2 °F 89% 30.04 in 10.0 mi Calm Calm - N/A   Clear
4:55 AM 64.4 °F 60.8 °F 88% 30.04 in 10.0 mi Calm Calm - N/A   Clear
5:15 AM 64.4 °F 61.0 °F 89% 30.04 in 10.0 mi Calm Calm - N/A   Clear
5:35 AM 64.4 °F 61.3 °F 90% 30.04 in 10.0 mi Calm Calm - N/A   Clear
5:55 AM 63.9 °F 60.8 °F 90% 30.04 in 10.0 mi Calm Calm - N/A   Clear
6:15 AM 63.9 °F 60.8 °F 90% 30.05 in 10.0 mi Calm Calm - N/A   Clear
6:35 AM 64.0 °F 60.8 °F 89% 30.05 in 10.0 mi Calm Calm - N/A   Clear
6:55 AM 64.0 °F 60.6 °F 89% 30.05 in 10.0 mi NW 3.5 mph - N/A   Clear
7:15 AM 64.2 °F 60.8 °F 89% 30.06 in 10.0 mi Calm Calm - N/A   Clear
7:35 AM 64.4 °F 61.0 °F 89% 30.06 in 10.0 mi NW 3.5 mph - N/A   Clear
7:55 AM 64.9 °F 61.3 °F 88% 30.07 in 10.0 mi NW 3.5 mph - N/A   Clear
8:15 AM 65.5 °F 60.8 °F 85% 30.06 in 10.0 mi NW 3.5 mph - N/A   Clear
8:35 AM 66.9 °F 60.6 °F 80% 30.07 in 10.0 mi Calm Calm - N/A   Clear
8:55 AM 68.2 °F 60.3 °F 76% 30.07 in 10.0 mi NW 3.5 mph - N/A   Clear
9:15 AM 69.3 °F 59.4 °F 71% 30.07 in 10.0 mi North 5.8 mph - N/A   Clear
9:35 AM 70.0 °F 58.3 °F 66% 30.08 in 10.0 mi NNW 5.8 mph - N/A   Clear
9:55 AM 70.7 °F 58.8 °F 66% 30.08 in 10.0 mi North 5.8 mph - N/A   Clear
10:15 AM 71.1 °F 59.4 °F 66% 30.08 in 10.0 mi NNW 6.9 mph - N/A   Clear
10:35 AM 71.6 °F 59.4 °F 65% 30.07 in 10.0 mi NNW 5.8 mph - N/A   Clear
10:55 AM 71.8 °F 58.3 °F 62% 30.07 in 10.0 mi NNE 9.2 mph - N/A   Clear
11:15 AM 72.0 °F 58.3 °F 62% 30.07 in 10.0 mi North 6.9 mph - N/A   Clear
11:35 AM 72.5 °F 59.4 °F 63% 30.07 in 10.0 mi North 3.5 mph - N/A   Clear
11:55 AM 72.7 °F 59.5 °F 63% 30.06 in 10.0 mi North 4.6 mph - N/A   Clear
12:15 PM 73.0 °F 58.3 °F 60% 30.06 in 10.0 mi North 9.2 mph - N/A   Clear
12:35 PM 73.0 °F 57.6 °F 58% 30.05 in 10.0 mi NNW 6.9 mph - N/A   Clear
12:55 PM 72.9 °F 57.4 °F 58% 30.05 in 10.0 mi North 6.9 mph - N/A   Clear
1:15 PM 73.0 °F 57.0 °F 57% 30.05 in 10.0 mi North 6.9 mph - N/A   Clear
1:35 PM 73.9 °F 56.3 °F 54% 30.05 in 10.0 mi North 4.6 mph - N/A   Clear
1:55 PM 73.9 °F 56.5 °F 54% 30.04 in 10.0 mi North 4.6 mph - N/A   Clear
2:15 PM 73.4 °F 57.0 °F 56% 30.03 in 10.0 mi NE 4.6 mph - N/A   Clear
2:35 PM 73.0 °F 56.8 °F 57% 30.03 in 10.0 mi NNE 5.8 mph - N/A   Clear
2:55 PM 73.0 °F 57.0 °F 57% 30.03 in 10.0 mi NE 4.6 mph - N/A   Clear
3:15 PM 73.4 °F 57.4 °F 57% 30.03 in 10.0 mi NNE 4.6 mph - N/A   Clear
3:35 PM 73.4 °F 57.2 °F 57% 30.02 in 10.0 mi NNE 5.8 mph - N/A   Clear
3:55 PM 72.9 °F 57.4 °F 58% 30.02 in 10.0 mi NE 5.8 mph - N/A   Clear
4:15 PM 72.7 °F 57.9 °F 60% 30.02 in 10.0 mi NE 4.6 mph - N/A   Clear
4:35 PM 72.3 °F 57.4 °F 59% 30.01 in 10.0 mi NE 5.8 mph - N/A   Clear
4:55 PM 72.1 °F 57.7 °F 60% 30.01 in 10.0 mi NE 3.5 mph - N/A   Clear
5:15 PM 71.8 °F 57.6 °F 61% 30.02 in 10.0 mi NNE 4.6 mph - N/A   Clear
5:35 PM 71.2 °F 57.2 °F 61% 30.02 in 10.0 mi NNE 3.5 mph - N/A   Clear
5:55 PM 70.9 °F 57.2 °F 62% 30.01 in 10.0 mi Calm Calm - N/A   Clear
6:15 PM 70.3 °F 57.2 °F 63% 30.02 in 10.0 mi Calm Calm - N/A   Clear
6:35 PM 70.2 °F 57.2 °F 63% 30.02 in 10.0 mi Calm Calm - N/A   Clear
6:55 PM 69.1 °F 58.1 °F 68% 30.02 in 10.0 mi Calm Calm - N/A   Clear
7:15 PM 68.2 °F 58.6 °F 71% 30.02 in 10.0 mi Calm Calm - N/A   Clear
7:35 PM 67.3 °F 59.0 °F 75% 30.02 in 10.0 mi Calm Calm - N/A   Clear
7:55 PM 66.0 °F 59.4 °F 79% 30.02 in 10.0 mi Calm Calm - N/A   Clear
8:15 PM 65.5 °F 59.5 °F 81% 30.02 in 10.0 mi Calm Calm - N/A   Clear
8:35 PM 65.3 °F 59.7 °F 82% 30.03 in 10.0 mi Calm Calm - N/A   Clear
8:55 PM 65.3 °F 60.1 °F 83% 30.02 in 10.0 mi Calm Calm - N/A   Clear
9:15 PM 64.9 °F 59.9 °F 84% 30.02 in 10.0 mi Calm Calm - N/A   Clear
9:35 PM 64.6 °F 59.7 °F 84% 30.02 in 10.0 mi Calm Calm - N/A   Clear
9:55 PM 64.0 °F 59.7 °F 86% 30.02 in 10.0 mi Calm Calm - N/A   Clear
10:15 PM 64.8 °F 60.4 °F 86% 30.02 in 4.0 mi Calm Calm - N/A   Clear
10:35 PM 65.7 °F 61.0 °F 85% 30.01 in 7.0 mi Calm Calm - N/A   Clear
10:55 PM 65.8 °F 61.3 °F 85% 30.01 in 10.0 mi Calm Calm - N/A   Clear
11:15 PM 65.3 °F 61.2 °F 86% 30.02 in 10.0 mi Calm Calm - N/A   Clear
11:35 PM 64.8 °F 61.5 °F 89% 30.02 in 7.0 mi Calm Calm - N/A   Clear
11:55 PM 64.2 °F 61.3 °F 90% 30.02 in 7.0 mi Calm Calm - N/A   Clear